Location: Doverdale
(52.2833°N, 2.2000°W)
Time: 04:16:32
(UTC+00:00)

MOS 1 - Pass Details

Date: 29 October 2020
Orbit: 878 x 891 km, 99.1° (Epoch: 25 November)

Event Time Altitude Azimuth Distance (km) Brightness Sun altitude
Exits shadow 19:57:14 75° 335° (NNW) 923 4.3 -29.8°
Drops below altitude 10° 20:02:24 10° 343° (NNW) 2,555 7.1 -30.5°
Sets 20:04:48 0° 344° (NNW) 3,497 7.8 -30.9°
